OSCAR 7 (AO-7) 1 07530U 74089B 26062.96204787 -.00000043 00000+0 22575-4 0 9994 2 07530 101.9969 75.0902 0012023 333.2490 54.7514 12.53696279347333 PHASE 3B (AO-10) 1 14129U 83058B 26061.53393855 -.00000164 00000+0 00000+0 0 9997 2 14129 25.9320 237.4860 6049007 86.0782 336.7646 2.05874052293290 UOSAT 2 (UO-11) 1 14781U 84021B 26062.83303504 .00002201 00000+0 23110-3 0 9992 2 14781 97.7938 29.6802 0007880 161.1655 198.9856 14.90481178241434 LUSAT (LO-19) 1 20442U 90005G 26062.62073614 .00000201 00000+0 88596-4 0 9993 2 20442 98.8939 81.4758 0012108 151.3360 208.8491 14.34085025887269 EYESAT A (AO-27) 1 22825U 93061C 26062.76337934 .00000165 00000+0 79888-4 0 9991 2 22825 98.6994 130.1688 0009207 54.9606 305.2439 14.30910827691929 ITAMSAT (IO-26) 1 22826U 93061D 26062.77409371 .00000180 00000+0 84654-4 0 9992 2 22826 98.6943 130.0863 0009515 39.5113 320.6761 14.31334617692234 RADIO ROSTO (RS15) 1 23439U 94085A 26062.84205144 -.00000009 00000+0 93709-3 0 9991 2 23439 64.8146 113.5914 0152454 23.1308 337.6386 11.27583832284026 JAS-2 (FO-29) 1 24278U 96046B 26062.88001910 -.00000016 00000+0 19632-4 0 9993 2 24278 98.5390 286.0853 0350071 9.8358 350.9408 13.53268430458922 TECHSAT 1B (GO-32) 1 25397U 98043D 26062.55859358 .00000117 00000+0 70908-4 0 9990 2 25397 99.0020 52.6812 0001875 129.2562 230.8782 14.24404107436291 ISS (ZARYA) 1 25544U 98067A 26062.89864036 .00010104 00000+0 19499-3 0 9990 2 25544 51.6318 100.9868 0008208 154.1881 205.9518 15.48428601555435 PCSAT (NO-44) 1 26931U 01043C 26062.69115843 .00000250 00000+0 12407-3 0 9995 2 26931 67.0509 157.1258 0007029 265.3966 94.6334 14.31908513275349 SAUDISAT 1C (SO-50) 1 27607U 02058C 26062.54737567 .00002181 00000+0 27456-3 0 9995 2 27607 64.5510 95.7694 0075104 281.7708 77.4980 14.82753743248794 CUTE-1 (CO-55) 1 27844U 03031E 26062.59243050 .00000460 00000+0 21825-3 0 9996 2 27844 98.6778 72.4669 0010485 128.3914 231.8208 14.24260210176642 CUBESAT XI-IV (CO-57) 1 27848U 03031J 26062.94998599 .00000409 00000+0 19861-3 0 9994 2 27848 98.6808 72.6171 0010137 144.0340 216.1522 14.23556668176405 MOZHAETS 4 (RS22) 1 27939U 03042A 26062.96522791 .00002078 00000+0 32987-3 0 9994 2 27939 98.3424 244.3673 0010264 240.1653 273.5471 14.73235152200054 CUBESAT XI-V 1 28895U 05043F 26062.87117245 .00003015 00000+0 48470-3 0 9999 2 28895 98.2817 216.3857 0014407 175.6769 184.4564 14.72288603 86252 CUTE-1.7+APD II (CO-65) 1 32785U 08021C 26062.94194560 .00010118 00000+0 65585-3 0 9992 2 32785 97.8199 42.3106 0010271 36.6240 323.5687 15.08272890969323 SEEDS II (CO-66) 1 32791U 08021J 26062.50727596 .00024010 00000+0 86001-3 0 9994 2 32791 97.7506 55.6816 0002563 18.3674 341.7657 15.28751446971120 YUBILEINY (RS30) 1 32953U 08025A 26062.99387828 .00000112 00000+0 73378-3 0 9991 2 32953 82.4984 60.8673 0019304 177.6665 182.4508 12.43176280806628 KKS-1 (KISEKI) 1 33499U 09002H 26062.93148615 .00002743 00000+0 34594-3 0 9995 2 33499 98.1190 343.7394 0006462 273.5989 86.4484 14.82803106920594 SWISSCUBE 1 35932U 09051B 26062.66110515 .00001642 00000+0 33546-3 0 9994 2 35932 98.4105 328.6970 0006663 170.6669 189.4657 14.62239489873738 BEESAT-1 1 35933U 09051C 26062.95916808 .00001470 00000+0 30614-3 0 9998 2 35933 98.4035 328.8520 0004910 180.9290 179.1902 14.61517504873815 ITUPSAT1 1 35935U 09051E 26062.72139682 .00001275 00000+0 27434-3 0 9991 2 35935 98.4123 327.9111 0006873 197.5625 162.5338 14.60252771873345 XIWANG-1 (HOPE-1) 1 36122U 09072B 26062.90903921 .00000298 00000+0 89622-3 0 9999 2 36122 100.3904 18.4814 0008050 111.8736 248.3234 13.16437403779156 O/OREOS (USA 219) 1 37224U 10062C 26062.83646137 .00003571 00000+0 34620-3 0 9994 2 37224 71.9724 318.8909 0016926 266.5085 93.4150 14.93243323100911 JUGNU 1 37839U 11058B 26062.79194167 .00000537 00000+0 14085-3 0 9990 2 37839 19.9596 228.7283 0018663 352.6019 135.4486 14.13737704744095 SRMSAT 1 37841U 11058D 26062.96787035 .00000500 00000+0 12742-3 0 9992 2 37841 19.9731 336.3350 0011884 126.4644 322.2477 14.11545128742931 STRAND-1 1 39090U 13009E 26062.92471728 .00000527 00000+0 19187-3 0 9992 2 39090 98.3882 245.7598 0008685 178.5530 181.5684 14.37088997681944 ZACUBE-1 (TSHEPISOSAT) 1 39417U 13066B 26062.86089902 .00006842 00000+0 54155-3 0 9990 2 39417 97.8183 24.6561 0041678 239.6691 120.0407 15.00250728664930 GOMX-1 1 39430U 13066Q 26062.96735992 .00002154 00000+0 32946-3 0 9999 2 39430 97.6570 270.0293 0130609 55.7282 305.6213 14.69070387654466 CUBEBUG-2 (LO-74) 1 39440U 13066AA 26062.86655321 .00008858 00000+0 83132-3 0 9996 2 39440 97.8812 11.5305 0059388 18.3107 342.0232 14.92865511661275 FUNCUBE-1 (AO-73) 1 39444U 13066AE 26062.33666782 .00010715 00000+0 69419-3 0 9992 2 39444 97.8168 31.7675 0036610 201.2550 158.7158 15.07759862663702 UWE-3 1 39446U 13066AG 26062.84429509 .00007180 00000+0 62860-3 0 9999 2 39446 97.8593 18.3537 0048814 312.6373 47.0737 14.96096774661820 UNISAT-6 1 40012U 14033C 26062.88880687 .00005069 00000+0 55294-3 0 9994 2 40012 97.7711 217.5863 0046390 56.6569 303.9075 14.87584608630504 DUCHIFAT-1 1 40021U 14033M 26062.69358967 .00071797 00000+0 13196-2 0 9999 2 40021 98.0640 108.4184 0006619 100.7475 259.4520 15.48953119639346 QB50P1 1 40025U 14033R 26062.90332400 .00014367 00000+0 74272-3 0 9994 2 40025 98.0997 66.7953 0007736 216.5301 143.5403 15.16365653637065 LILACSAT-2 1 40908U 15049K 26062.95529039 .00023146 00000+0 44732-3 0 9996 2 40908 97.4813 95.9809 0005594 274.2877 85.7733 15.47770743579453 FOX-1A (AO-85) 1 40967U 15058D 26062.88860049 .00005584 00000+0 50388-3 0 9992 2 40967 64.7736 246.0523 0129204 98.2663 263.3124 14.90294754 97872 CAS-2T & KS-1Q 1 41847U 16066G 26062.74981828 .00001890 00000+0 27184-3 0 9998 2 41847 98.3898 139.6652 0343776 89.4440 274.6126 14.44447987489575 RADFXSAT (FOX-1B) 1 43017U 17073E 26062.89931737 .00015080 00000+0 68318-3 0 9998 2 43017 97.4871 292.3184 0155349 332.2380 27.0619 15.10722058449485 DIWATA-2B 1 43678U 18084H 26062.98515336 .00002660 00000+0 21934-3 0 9990 2 43678 98.1032 254.7880 0011191 144.6269 215.5697 14.99924041400442 ES'HAIL 2 1 43700U 18090A 26062.87686335 .00000131 00000+0 00000+0 0 9997 2 43700 0.0189 229.8845 0002617 146.4980 126.6962 1.00271016 26626 FOX-1CLIFF (AO-95) 1 43770U 18099N 26062.14430379 .00013475 00000+0 55490-3 0 9990 2 43770 97.4530 122.9032 0008885 10.7969 349.3457 15.24199958397053 ITASAT 1 43786U 18099AE 26062.64262248 .00009887 00000+0 49452-3 0 9993 2 43786 97.4180 116.2939 0012847 7.8683 352.2750 15.17555336396894 JY1SAT (JO-97) 1 43803U 18099AX 26062.60463825 .00022566 00000+0 77746-3 0 9999 2 43803 97.4266 125.2819 0004622 285.6842 74.3888 15.30022235397461 UWE-4 1 43880U 18111E 26062.76119251 .00042354 00000+0 10754-2 0 9999 2 43880 97.5856 346.8362 0008744 2.0975 358.0305 15.39499406394520 TIANYAN 01 1 44881U 19093C 26062.96339793 .00001505 00000+0 17665-3 0 9990 2 44881 97.7627 137.7372 0015050 74.8104 285.4776 14.86325779335787 RS-44 & BREEZE-KM R/B 1 44909U 19096E 26062.93114200 .00000008 00000+0 -14679-4 0 9996 2 44909 82.5191 49.6418 0218155 30.7536 330.6139 12.79747399288889 SALSAT 1 46495U 20068K 26062.77970162 .00012684 00000+0 46597-3 0 9993 2 46495 97.8847 59.5668 0008731 321.6728 38.3888 15.28039347299257 XW-3 (CAS-9) 1 50466U 21131B 26062.95005638 .00000502 00000+0 16921-3 0 9999 2 50466 98.4970 155.9385 0005088 63.9087 296.2625 14.41240992219954 GREENCUBE (IO-117) 1 53109U 22080E 26061.72898270 -.00000003 00000+0 00000+0 0 9990 2 53109 70.1617 335.2737 0009043 313.3588 46.6318 6.42583122 85227 UMKA 1 (RS40S) 1 57172U 23091G 26062.90894391 .00010256 00000+0 48487-3 0 9993 2 57172 97.5190 122.0388 0014516 124.2015 236.0598 15.19491980148015 CUBESX-HSE 3 (RS42S) 1 57178U 23091N 26062.93371413 .00020166 00000+0 72938-3 0 9996 2 57178 97.5220 127.3462 0012815 105.6207 254.6447 15.28390021148330 MONITOR-3 (RS58S) 1 57180U 23091Q 26062.94096721 .00016952 00000+0 66829-3 0 9996 2 57180 97.5214 125.7233 0013740 110.1153 250.1564 15.25562333148237 MONITOR-4 (RS57S) 1 57182U 23091S 26062.92641487 .00016702 00000+0 65684-3 0 9992 2 57182 97.5209 125.6733 0013690 110.5638 249.7070 15.25647033148230 MONITOR-2 (RS39S) 1 57184U 23091U 26062.93779873 .00007404 00000+0 36846-3 0 9993 2 57184 97.5214 121.9094 0012949 116.4173 243.8391 15.17828202147984 SVYATOBOR 1 (RS60S) 1 57187U 23091X 26062.99058162 .00015359 00000+0 62288-3 0 9990 2 57187 97.5220 126.3089 0011260 102.7983 257.4513 15.24662788148272 VIZARD-METEO (RS38S) 1 57189U 23091Z 26062.95250833 .00026597 00000+0 84726-3 0 9994 2 57189 97.5209 130.5482 0008992 90.1142 270.1130 15.32492450148554 NANOZOND 1 (RS49S) 1 57190U 23091AA 26062.95747126 .00246799 00000+0 18380-2 0 9992 2 57190 97.5096 142.7538 0000514 51.8685 308.2624 15.72047804149370 POLYTECH-UNIVERSE 3 (R*) 1 57191U 23091AB 26062.97849685 .00008874 00000+0 43785-3 0 9996 2 57191 97.5187 121.4569 0017105 132.4553 227.8130 15.18010884147985 UTMN 2 (RS27S) 1 57203U 23091AP 26062.94532274 .00019764 00000+0 69655-3 0 9994 2 57203 97.5212 128.8622 0009898 94.2144 266.0227 15.29275968148442 KUZGTU 1 (RS47S) 1 57217U 23091AV 26062.97080314 .00019386 00000+0 72537-3 0 9998 2 57217 97.5196 126.5133 0013014 108.0666 252.1992 15.27277974148305 SONATE-2 1 59112U 24043Q 26062.33696594 .00042896 00000+0 74322-3 0 9991 2 59112 97.5388 206.9640 0007797 228.8170 131.2409 15.50754835111449 MESAT1 1 60209U 24125G 26062.83779270 .00057099 00000+0 91078-3 0 9997 2 60209 97.2461 278.6230 0011276 246.0348 113.9725 15.52970509 93160 OOV-CUBE (TUBSAT-30) 1 60240U 24128F 26062.97166421 .00005068 00000+0 38611-3 0 9991 2 60240 61.9936 232.3072 0054998 111.2092 249.4886 15.02197194 90300 COLIBRI-S (RS67S) 1 61746U 24199M 26062.91390233 .00031385 00000+0 70841-3 0 9997 2 61746 97.3169 296.0485 0007999 310.7249 49.3304 15.43126227121151 HORS 3 (RS81S) 1 61753U 24199U 26062.95845381 .00045939 00000+0 87910-3 0 9993 2 61753 97.3138 297.1596 0006147 318.5053 41.5730 15.47910286121240 HORS 4 (RS82S) 1 61754U 24199V 26062.90743948 .00051686 00000+0 89888-3 0 9997 2 61754 97.3115 297.7827 0005853 315.6913 44.3870 15.50620903121283 HORIZON (RS59S) 1 61757U 24199Y 26062.94395323 .00169085 00000+0 14746-2 0 9997 2 61757 97.3085 301.4982 0003210 290.0532 70.0383 15.68454712121529 ARCTICSAT 1 (RS74S) 1 61762U 24199AD 26062.94119247 .00130594 00000+0 13462-2 0 9999 2 61762 97.3103 301.0534 0003597 286.8332 73.2533 15.64391873121496 SIT-2086 1 61764U 24199AF 26062.96690947 .00033398 00000+0 65412-3 0 9991 2 61764 97.3133 297.9053 0006273 297.2100 62.8511 15.47304847118136 RUZAEVKA 390 (RS44S) 1 61766U 24199AH 26062.93889895 .01129782 68703-3 19131-2 0 9990 2 61766 97.2859 304.8324 0001884 161.0709 199.0641 16.02846389118600 HYPERVIEW 1G (RS66S) 1 61772U 24199AP 26062.91014297 .00086240 00000+0 11820-2 0 9990 2 61772 97.3097 298.8357 0007019 312.1912 47.8747 15.57056996118200 ALTAIR (RS65S) 1 61779U 24199AW 26062.96470380 .00017528 00000+0 51920-3 0 9990 2 61779 97.3190 293.0671 0012625 330.7816 29.2720 15.34848557120963 ASRTU-1 (AO-123) 1 61781U 24199AY 26062.94086942 .00013652 00000+0 41702-3 0 9999 2 61781 97.3164 292.5806 0013373 332.6717 27.3821 15.33922550117785 TUSUR GO (RS78S) 1 61782U 24199AZ 26062.95867648 .00183538 00000+0 15718-2 0 9999 2 61782 97.3042 300.5234 0004294 309.6039 50.4843 15.68853690118327 SAMSAT-IONOSPHERE (RS7*) 1 61784U 24199BB 26062.92223021 .00052677 00000+0 96887-3 0 9995 2 61784 97.3127 296.9070 0009154 318.6297 41.4260 15.48993858121220 RTU MIREA 1 (RS51S) 1 61785U 24199BC 26062.92716758 .00063545 00000+0 10936-2 0 9996 2 61785 97.3124 297.3403 0008869 314.5374 45.5153 15.50840671118102 TEVEL2-4 1 63213U 25052D 26062.94175955 .00028831 00000+0 97341-3 0 9998 2 63213 97.4032 319.3860 0004511 106.5122 253.6615 15.30629564 53995 TEVEL2-5 1 63214U 25052E 26062.69074817 .00026304 00000+0 89220-3 0 9996 2 63214 97.4034 319.1100 0004485 106.2473 253.9261 15.30498940 53957 TEVEL2-6 1 63215U 25052F 26062.63503006 .00026501 00000+0 90006-3 0 9991 2 63215 97.4037 319.0398 0004591 107.8577 252.3165 15.30454463 53946 TEVEL2-1 1 63217U 25052H 26062.69703151 .00025683 00000+0 88350-3 0 9991 2 63217 97.4010 318.8401 0004432 116.6791 243.4904 15.30046561 53949 TEVEL2-3 1 63218U 25052J 26062.95633807 .00027339 00000+0 93869-3 0 9992 2 63218 97.4012 319.1092 0004456 117.7837 242.3856 15.30095144 53980 TEVEL2-2 1 63219U 25052K 26062.69769975 .00025579 00000+0 87990-3 0 9992 2 63219 97.4011 318.8415 0004356 117.5703 242.5981 15.30048117 53949 TEVEL2-9 1 63237U 25052AD 26062.67942472 .00022183 00000+0 80393-3 0 9993 2 63237 97.4074 318.4032 0007444 141.7645 218.4124 15.28354901 53897 TEVEL2-7 1 63238U 25052AE 26062.63741027 .00022614 00000+0 82474-3 0 9994 2 63238 97.4078 318.3155 0007576 141.9181 218.2595 15.28142273 53886 TEVEL2-8 1 63239U 25052AF 26062.64434470 .00022928 00000+0 83670-3 0 9994 2 63239 97.4074 318.3034 0007480 142.3378 217.8387 15.28119678 53883 HADES-ICM 1 63492U 25052BN 26062.65216698 .00157932 00000+0 23190-2 0 9990 2 63492 97.3970 322.8879 0008396 122.9792 237.2270 15.54914942 54206 INNOSAT 16 (RS92S7) 1 64878U 25155C 26062.93911807 .00010012 00000+0 41466-3 0 9992 2 64878 97.4454 30.5764 0010262 185.4084 174.7044 15.24070111 64632 GEOSCAN 6 (RS92S6) 1 64879U 25155D 26062.95179884 .00017001 00000+0 62776-3 0 9998 2 64879 97.4453 31.3399 0007919 173.0943 187.0407 15.27791934 64688 GEOSCAN 1 (RS92S1) 1 64880U 25155E 26062.92367769 .00019708 00000+0 71807-3 0 9999 2 64880 97.4452 31.3822 0007798 173.3439 186.7905 15.28201822 64680 239ALFEROV (RS61S) 1 64881U 25155F 26062.95501012 .00023517 00000+0 81845-3 0 9990 2 64881 97.4457 31.6738 0007529 170.3739 189.7647 15.29668906 64707 GEOSCAN 2 (RS92S2) 1 64890U 25155Q 26062.93716619 .00018146 00000+0 65549-3 0 9994 2 64890 97.4450 31.5039 0007719 159.2325 200.9229 15.28502912 64694 GEOSCAN 5 (RS92S5) 1 64891U 25155R 26062.96641778 .00024045 00000+0 82838-3 0 9996 2 64891 97.4451 31.7810 0006146 173.0556 187.0771 15.30003899 64711 GEOSCAN 4 (RS92S4) 1 64892U 25155S 26062.95918562 .00024323 00000+0 83525-3 0 9997 2 64892 97.4453 31.7971 0006148 173.3362 186.7961 15.30106276 64712 GEOSCAN 3 (RS92S3) 1 64893U 25155T 26062.94198641 .00028305 00000+0 93383-3 0 9992 2 64893 97.4445 31.9599 0005721 173.1131 187.0190 15.31375302 64728 INNOSAT 3 (RS92S0) 1 64894U 25155U 26062.92808292 .00049579 00000+0 14017-2 0 9993 2 64894 97.4416 32.5545 0005299 162.6309 197.5118 15.36157639 64761